CW9585 Weather Reports


Display with metric or nautical units.
time (UTC)temp
F
wind
direction
speed
MPH
gust
MPH
rain 1hr
in
rain 24hr
in
rain mn
in
humidity
%
barometer
mb
20260906070705 62 111 0.0 0.0 0.00 0.00 0.00 80 1015.3
20260906070205 62 111 0.0 0.0 0.00 0.00 0.00 80 1015.3
20260906065704 62 111 0.0 0.0 0.00 0.00 0.00 80 1015.2
20260906065204 62 111 0.0 0.0 0.00 0.00 0.00 79 1015.2
20260906063704 62 111 0.0 0.0 0.00 0.00 0.00 79 1015.3
20260906063205 63 111 0.0 0.0 0.00 0.00 0.00 79 1015.2
20260906062704 63 111 0.0 0.0 0.00 0.00 0.00 79 1015.1
20260906061705 63 111 0.0 0.0 0.00 0.00 0.00 79 1015.2
20260906061205 63 111 0.0 0.0 0.00 0.00 0.00 78 1015.2
20260906060704 63 111 0.0 0.0 0.00 0.00 0.00 78 1015.2
20260906060204 63 111 0.0 0.0 0.00 0.00 0.00 78 1015.2
20260906054705 63 111 0.0 2.0 0.00 0.00 0.00 78 1015.2
20260906054204 64 111 0.0 3.0 0.00 0.00 0.00 78 1015.3
20260906053704 64 111 1.0 4.0 0.00 0.00 0.00 79 1015.2
20260906053204 64 111 1.0 4.0 0.00 0.00 0.00 78 1015.2
20260906052704 64 111 1.0 4.0 0.00 0.00 0.00 78 1015.3
20260906052205 64 125 1.0 3.0 0.00 0.00 0.00 78 1015.3
20260906051704 64 125 0.0 2.0 0.00 0.00 0.00 78 1015.4
20260906051205 64 125 0.0 2.0 0.00 0.00 0.00 78 1015.4
20260906050704 64 125 1.0 3.0 0.00 0.00 0.00 78 1015.3
20260906050204 64 125 1.0 3.0 0.00 0.00 0.00 78 1015.3
20260906045705 64 125 0.0 1.0 0.00 0.00 0.00 78 1015.3
20260906045204 64 125 0.0 2.0 0.00 0.00 0.00 78 1015.2
20260906044705 64 125 0.0 5.0 0.00 0.00 0.00 78 1015.2
20260906044204 64 125 0.0 5.0 0.00 0.00 0.00 77 1015.2
20260906043704 65 125 1.0 7.0 0.00 0.00 0.00 77 1015.2
20260906043205 65 113 2.0 7.0 0.00 0.00 0.00 77 1015.1
20260906042705 65 136 3.0 9.0 0.00 0.00 0.00 77 1015.0
20260906042205 65 113 3.0 9.0 0.00 0.00 0.00 77 1014.9
20260906041704 65 121 4.0 9.0 0.00 0.00 0.00 76 1014.9
20260906041204 65 128 4.0 8.0 0.00 0.00 0.00 76 1014.8
20260906040704 65 119 4.0 8.0 0.00 0.00 0.00 76 1014.8
20260906040204 66 119 4.0 10.0 0.00 0.00 0.00 75 1014.7
20260906035705 66 136 5.0 10.0 0.00 0.00 0.00 74 1014.6
20260906035205 66 131 4.0 10.0 0.00 0.00 0.00 73 1014.5
20260906034704 67 139 3.0 8.0 0.00 0.00 0.00 73 1014.5
20260906033704 68 111 3.0 6.0 0.00 0.00 0.00 71 1014.3
20260906033204 69 107 2.0 7.0 0.00 0.00 0.00 70 1014.2
20260906032704 69 188 2.0 7.0 0.00 0.00 0.00 67 1014.1
20260906032205 70 113 3.0 7.0 0.00 0.00 0.00 65 1013.9
20260906031704 71 137 3.0 6.0 0.00 0.00 0.00 63 1013.9
20260906031204 71 93 2.0 6.0 0.00 0.00 0.00 61 1013.7
20260906030704 72 142 1.0 6.0 0.00 0.00 0.00 58 1013.7
20260906030204 72 335 2.0 6.0 0.00 0.00 0.00 54 1013.7
20260906025704 73 336 3.0 7.0 0.00 0.00 0.00 53 1013.6
20260906025204 73 9 4.0 9.0 0.00 0.00 0.00 52 1013.5
20260906024704 73 21 4.0 9.0 0.00 0.00 0.00 52 1013.5
20260906024205 74 298 4.0 9.0 0.00 0.00 0.00 51 1013.4
20260906023704 74 304 3.0 7.0 0.00 0.00 0.00 50 1013.4
20260906023205 74 277 3.0 7.0 0.00 0.00 0.00 49 1013.3
20260906022204 75 303 4.0 7.0 0.00 0.00 0.00 47 1013.3
20260906021705 76 282 4.0 7.0 0.00 0.00 0.00 47 1013.3
20260906020705 76 277 4.0 7.0 0.00 0.00 0.00 45 1013.3
20260906020205 76 293 4.0 8.0 0.00 0.00 0.00 44 1013.2
20260906015704 77 294 4.0 10.0 0.00 0.00 0.00 43 1013.3
20260906015204 77 297 4.0 10.0 0.00 0.00 0.00 43 1013.3
20260906014705 78 319 4.0 10.0 0.00 0.00 0.00 41 1013.2
20260906014204 78 264 5.0 10.0 0.00 0.00 0.00 41 1013.2
20260906013705 79 342 5.0 10.0 0.00 0.00 0.00 40 1013.1
20260906013204 79 309 5.0 12.0 0.00 0.00 0.00 40 1013.0
20260906012704 80 320 5.0 13.0 0.00 0.00 0.00 40 1013.0
20260906012205 80 307 6.0 13.0 0.00 0.00 0.00 39 1013.0
20260906011205 81 344 5.0 13.0 0.00 0.00 0.00 40 1012.9
20260906010705 81 321 5.0 13.0 0.00 0.00 0.00 40 1013.0
20260906005704 80 227 4.0 11.0 0.00 0.00 0.00 47 1012.8
20260906005205 80 175 5.0 11.0 0.00 0.00 0.00 48 1012.8
20260906004705 80 192 5.0 11.0 0.00 0.00 0.00 46 1012.8
20260906004205 80 211 4.0 8.0 0.00 0.00 0.00 45 1012.8
20260906003704 80 269 4.0 10.0 0.00 0.00 0.00 46 1012.9
20260906003205 80 221 5.0 10.0 0.00 0.00 0.00 47 1012.9
20260906002704 80 201 6.0 10.0 0.00 0.00 0.00 47 1012.9
20260906002204 80 200 6.0 10.0 0.00 0.00 0.00 47 1013.0
20260906001705 81 209 5.0 9.0 0.00 0.00 0.00 48 1012.9
20260906001204 81 188 5.0 9.0 0.00 0.00 0.00 48 1012.9
20260905234204 82 178 4.0 9.0 0.00 0.00 0.00 44 1013.1
20260905233704 82 194 4.0 9.0 0.00 0.00 0.00 45 1013.0
20260905233205 82 215 4.0 7.0 0.00 0.00 0.00 44 1013.2
20260905232704 82 180 4.0 8.0 0.00 0.00 0.00 44 1013.1
20260905232205 82 188 4.0 8.0 0.00 0.00 0.00 44 1013.2
20260905231704 81 225 5.0 8.0 0.00 0.00 0.00 45 1013.1
20260905231204 81 157 4.0 8.0 0.00 0.00 0.00 43 1013.3
20260905230704 81 184 4.0 8.0 0.00 0.00 0.00 44 1013.4
20260905230205 81 210 4.0 8.0 0.00 0.00 0.00 43 1013.5
20260905225705 81 215 4.0 8.0 0.00 0.00 0.00 43 1013.6
20260905225204 81 193 5.0 8.0 0.00 0.00 0.00 42 1013.6
20260905224705 81 179 4.0 9.0 0.00 0.00 0.00 41 1013.7
20260905224204 81 202 5.0 9.0 0.00 0.00 0.00 41 1013.8
20260905223704 81 242 5.0 11.0 0.00 0.00 0.00 42 1013.8
20260905223204 81 239 5.0 11.0 0.00 0.00 0.00 43 1013.8
20260905222204 81 219 6.0 10.0 0.00 0.00 0.00 42 1013.8
20260905221704 81 240 5.0 11.0 0.00 0.00 0.00 42 1013.8
20260905220704 81 171 5.0 11.0 0.00 0.00 0.00 44 1013.9
20260905215705 81 167 5.0 10.0 0.00 0.00 0.00 43 1014.0
20260905215204 81 206 5.0 10.0 0.00 0.00 0.00 41 1014.1
20260905214204 80 195 6.0 11.0 0.00 0.00 0.00 40 1014.1
20260905213705 80 182 6.0 11.0 0.00 0.00 0.00 39 1014.3
20260905213204 81 163 5.0 10.0 0.00 0.00 0.00 34 1014.2
20260905212204 80 241 5.0 12.0 0.00 0.00 0.00 31 1014.3
20260905211704 80 202 5.0 12.0 0.00 0.00 0.00 35 1014.3
20260905211205 80 166 6.0 13.0 0.00 0.00 0.00 34 1014.5
20260905210704 79 286 6.0 13.0 0.00 0.00 0.00 31 1014.4
20260905210204 79 227 6.0 12.0 0.00 0.00 0.00 32 1014.5
20260905205705 79 188 6.0 12.0 0.00 0.00 0.00 30 1014.4
20260905205205 79 188 5.0 10.0 0.00 0.00 0.00 28 1014.4
20260905204704 79 224 5.0 10.0 0.00 0.00 0.00 29 1014.4
20260905204205 79 242 5.0 10.0 0.00 0.00 0.00 29 1014.6
20260905203704 78 173 5.0 10.0 0.00 0.00 0.00 31 1014.5
20260905203204 78 184 5.0 10.0 0.00 0.00 0.00 30 1014.6
20260905201704 76 207 4.0 8.0 0.00 0.00 0.00 38 1014.7
20260905200704 75 221 4.0 8.0 0.00 0.00 0.00 42 1014.9
20260905200205 75 182 3.0 7.0 0.00 0.00 0.00 45 1015.0
20260905195704 74 182 3.0 7.0 0.00 0.00 0.00 48 1015.0
20260905195205 74 153 4.0 7.0 0.00 0.00 0.00 49 1015.0
20260905194204 72 193 3.0 7.0 0.00 0.00 0.00 45 1015.2
20260905193704 72 208 4.0 7.0 0.00 0.00 0.00 47 1015.2
20260905193204 71 189 4.0 7.0 0.00 0.00 0.00 52 1015.2
20260905192704 71 200 4.0 7.0 0.00 0.00 0.00 51 1015.3
20260905192204 70 202 4.0 7.0 0.00 0.00 0.00 50 1015.3
20260905191704 69 227 4.0 7.0 0.00 0.00 0.00 51 1015.4
20260905191205 69 194 4.0 7.0 0.00 0.00 0.00 52 1015.5
20260905190204 69 211 4.0 7.0 0.00 0.00 0.00 52 1015.6
20260905185705 69 237 4.0 10.0 0.00 0.00 0.00 53 1015.7
20260905185204 69 234 4.0 10.0 0.00 0.00 0.00 52 1015.7
20260905184204 69 176 4.0 9.0 0.00 0.00 0.00 51 1015.8
20260905183704 70 187 4.0 9.0 0.00 0.00 0.00 52 1015.7
20260905183204 71 205 3.0 7.0 0.00 0.00 0.00 53 1015.7
20260905182705 71 240 3.0 7.0 0.00 0.00 0.00 54 1015.6
20260905182205 70 213 4.0 7.0 0.00 0.00 0.00 53 1015.6
20260905181705 70 223 3.0 7.0 0.00 0.00 0.00 54 1015.5
20260905181205 70 204 2.0 6.0 0.00 0.00 0.00 54 1015.5
20260905180704 69 227 2.0 6.0 0.00 0.00 0.00 56 1015.5
20260905180204 68 200 3.0 6.0 0.00 0.00 0.00 56 1015.5
20260905175704 67 151 3.0 6.0 0.00 0.00 0.00 59 1015.5
20260905175205 67 182 2.0 7.0 0.00 0.00 0.00 60 1015.5
20260905174205 67 143 3.0 7.0 0.00 0.00 0.00 62 1015.7
20260905172205 66 113 5.0 9.0 0.00 0.00 0.00 63 1015.5
20260905171204 67 121 4.0 8.0 0.00 0.00 0.00 62 1015.6
20260905170704 67 191 4.0 8.0 0.00 0.00 0.00 60 1015.6
20260905165705 67 134 4.0 8.0 0.00 0.00 0.00 64 1015.5
20260905164704 67 185 4.0 7.0 0.00 0.00 0.00 62 1015.5
20260905164205 67 192 3.0 7.0 0.00 0.00 0.00 64 1015.4
20260905163704 66 117 3.0 7.0 0.00 0.00 0.00 65 1015.4
20260905163204 66 130 3.0 7.0 0.00 0.00 0.00 66 1015.4
20260905162704 66 139 2.0 7.0 0.00 0.00 0.00 68 1015.3
20260905162204 66 120 2.0 5.0 0.00 0.00 0.00 69 1015.2
20260905161704 65 161 2.0 4.0 0.00 0.00 0.00 70 1015.3
20260905161205 65 126 1.0 4.0 0.00 0.00 0.00 71 1015.3
20260905160705 65 127 1.0 3.0 0.00 0.00 0.00 71 1015.3
20260905160204 64 172 1.0 3.0 0.00 0.00 0.00 71 1015.3
20260905155204 63 110 1.0 3.0 0.00 0.00 0.00 72 1015.3
20260905154704 63 100 1.0 3.0 0.00 0.00 0.00 72 1015.3
20260905153705 62 68 0.0 2.0 0.00 0.00 0.00 73 1015.2
20260905153204 61 58 0.0 0.0 0.00 0.00 0.00 74 1015.1
20260905152704 61 106 0.0 0.0 0.00 0.00 0.00 75 1015.1
20260905152205 60 324 0.0 0.0 0.00 0.00 0.00 75 1015.2
20260905151704 59 324 0.0 0.0 0.00 0.00 0.00 75 1015.1
20260905151204 59 324 0.0 4.0 0.00 0.00 0.00 75 1015.1
20260905150704 58 324 1.0 4.0 0.00 0.00 0.00 75 1015.0
20260905150205 58 351 1.0 4.0 0.00 0.00 0.00 76 1015.0
20260905145704 58 334 1.0 5.0 0.00 0.00 0.00 76 1015.0
20260905145204 57 331 2.0 5.0 0.00 0.00 0.00 77 1015.0
20260905144705 57 44 1.0 3.0 0.00 0.00 0.00 77 1014.9
20260905143705 56 5 1.0 3.0 0.00 0.00 0.00 78 1015.0
20260905142204 55 334 1.0 3.0 0.00 0.00 0.00 79 1014.9
20260905141704 55 338 1.0 4.0 0.00 0.00 0.00 79 1014.8
20260905141204 55 329 2.0 5.0 0.00 0.00 0.00 79 1014.8
20260905140704 55 333 2.0 5.0 0.00 0.00 0.00 79 1014.8
20260905140206 55 11 2.0 5.0 0.00 0.00 0.00 79 1014.7
20260905135204 55 15 0.0 0.0 0.00 0.00 0.00 78 1014.6
20260905134704 55 340 0.0 0.0 0.00 0.00 0.00 78 1014.6
20260905134204 55 327 0.0 0.0 0.00 0.00 0.00 78 1014.6
20260905133704 55 327 0.0 0.0 0.00 0.00 0.00 78 1014.6
20260905133205 55 327 0.0 0.0 0.00 0.00 0.00 77 1014.5
20260905132704 55 327 0.0 0.0 0.00 0.00 0.00 77 1014.6
20260905132204 55 327 0.0 3.0 0.00 0.00 0.00 77 1014.4
20260905131704 55 327 1.0 3.0 0.00 0.00 0.00 77 1014.5
20260905131204 56 327 1.0 3.0 0.00 0.00 0.00 76 1014.5
20260905130704 56 327 1.0 3.0 0.00 0.00 0.00 76 1014.6
20260905130204 56 327 1.0 3.0 0.00 0.00 0.00 75 1014.6
20260905125704 56 327 0.0 0.0 0.00 0.00 0.00 75 1014.7
20260905124705 56 327 0.0 2.0 0.00 0.00 0.00 75 1014.6
20260905124205 56 327 0.0 2.0 0.00 0.00 0.00 75 1014.6
20260905123704 56 327 0.0 3.0 0.00 0.00 0.00 75 1014.6
20260905123205 57 327 1.0 4.0 0.00 0.00 0.00 75 1014.7
20260905122704 57 327 1.0 4.0 0.00 0.00 0.00 75 1014.6
20260905122204 57 333 2.0 5.0 0.00 0.00 0.00 75 1014.7
20260905121704 57 309 3.0 5.0 0.00 0.00 0.00 74 1014.7
20260905121204 57 338 3.0 8.0 0.00 0.00 0.00 74 1014.6
20260905120705 57 313 3.0 8.0 0.00 0.00 0.00 74 1014.6
20260905120204 57 5 3.0 8.0 0.00 0.00 0.00 74 1014.6
20260905115704 57 311 3.0 6.0 0.00 0.00 0.00 74 1014.6
20260905115205 57 15 3.0 6.0 0.00 0.00 0.00 74 1014.5
20260905114704 57 9 2.0 6.0 0.00 0.00 0.00 74 1014.5
20260905114205 57 0 2.0 6.0 0.00 0.00 0.00 74 1014.6
20260905113704 57 13 3.0 6.0 0.00 0.00 0.00 74 1014.5
20260905113204 57 5 3.0 6.0 0.00 0.00 0.00 74 1014.5
20260905112704 57 339 2.0 6.0 0.00 0.00 0.00 74 1014.6
20260905112204 57 355 2.0 7.0 0.00 0.00 0.00 74 1014.6
20260905111704 57 19 3.0 7.0 0.00 0.00 0.00 74 1014.6
20260905111205 57 17 3.0 7.0 0.00 0.00 0.00 74 1014.7
20260905110704 57 331 2.0 6.0 0.00 0.00 0.00 75 1014.6
20260905110204 57 330 3.0 6.0 0.00 0.00 0.00 75 1014.6
20260905105704 57 329 3.0 6.0 0.00 0.00 0.00 75 1014.7
20260905105205 56 355 3.0 6.0 0.00 0.00 0.00 76 1014.7
20260905104704 56 0 3.0 6.0 0.00 0.00 0.00 76 1014.6
20260905103705 56 334 2.0 5.0 0.00 0.00 0.00 77 1014.7
20260905103205 56 326 1.0 4.0 0.00 0.00 0.00 77 1014.7
20260905102704 56 336 0.0 0.0 0.00 0.00 0.00 77 1014.7
20260905102204 56 13 0.0 0.0 0.00 0.00 0.00 78 1014.8
20260905101704 56 13 0.0 0.0 0.00 0.00 0.00 78 1014.8
20260905101204 56 13 0.0 0.0 0.00 0.00 0.00 78 1014.8
20260905100704 57 13 0.0 0.0 0.00 0.00 0.00 78 1014.8
20260905100205 57 13 0.0 0.0 0.00 0.00 0.00 78 1014.8
20260905095204 57 13 0.0 0.0 0.00 0.00 0.00 78 1014.8
20260905094704 57 13 0.0 0.0 0.00 0.00 0.00 78 1014.9
20260905094205 57 13 0.0 2.0 0.00 0.00 0.00 77 1015.0
20260905093705 57 13 0.0 3.0 0.00 0.00 0.00 77 1015.0
20260905093204 58 13 1.0 5.0 0.00 0.00 0.00 77 1014.9
20260905092704 58 19 1.0 5.0 0.00 0.00 0.00 77 1014.9
20260905092205 58 17 2.0 5.0 0.00 0.00 0.00 77 1014.9
20260905091704 58 24 2.0 4.0 0.00 0.00 0.00 78 1015.0
20260905091204 58 31 2.0 5.0 0.00 0.00 0.00 78 1015.1
20260905090704 58 342 2.0 5.0 0.00 0.00 0.00 78 1015.1
20260905090204 58 13 2.0 5.0 0.00 0.00 0.00 79 1015.2
20260905085704 58 5 2.0 5.0 0.00 0.00 0.00 79 1015.2
20260905085204 58 345 2.0 4.0 0.00 0.00 0.00 79 1015.2
20260905084704 58 355 2.0 4.0 0.00 0.00 0.00 79 1015.2
20260905084205 58 333 2.0 4.0 0.00 0.00 0.00 80 1015.3
20260905083704 58 355 1.0 4.0 0.00 0.00 0.00 80 1015.3
20260905082704 58 15 2.0 4.0 0.00 0.00 0.00 80 1015.2
20260905082204 58 9 2.0 4.0 0.00 0.00 0.00 80 1015.2
20260905081205 58 26 1.0 3.0 0.00 0.00 0.00 80 1015.2
20260905080205 58 17 0.0 4.0 0.00 0.00 0.00 81 1015.3
20260905075704 59 9 1.0 4.0 0.00 0.01 0.00 81 1015.2
20260905075204 59 9 2.0 4.0 0.00 0.01 0.00 81 1015.3
20260905074205 59 347 1.0 3.0 0.00 0.01 0.00 81 1015.2
20260905073204 59 37 0.0 0.0 0.00 0.02 0.00 82 1015.2
20260905072204 60 37 0.0 0.0 0.00 0.02 0.00 83 1015.2
20260905071204 60 113 0.0 0.0 0.00 0.02 0.00 83 1015.2